Regional Weather Roundup
Issued by NWS

Home | Current Version | Previous Version | Graphics & Text | Print | Product List | Glossary On
Versions: 1 2 3 4 5 6 7 8 9 10 11 12 13 14 15 16 17 18 19 20 21 22 23 24 25 26 27 28 29 30 31 32 33 34 35 36 37 38 39 40 41 42 43 44 45 46 47 48 49 50
000
ASUS43 KMPX 301701
RWRMN
WEATHER ROUNDUP FOR MINNESOTA
NATIONAL WEATHER SERVICE TWIN CITIES/CHANHASSEN MN
1200 PM CDT THU OCT 30 2014


NOTE: "FAIR" INDICATES FEW OR NO CLOUDS BELOW 12,000 FEET WITH NO
SIGNIFICANT WEATHER AND/OR OBSTRUCTIONS TO VISIBILITY. N/A MEANS
CURRENT SKY AND/OR WEATHER CONDITIONS ARE NOT AVAILABLE.

MNZ060>063-068>070-301800-
   Twin Cities Metro

CITY           SKY/WX    TMP DP  RH WIND       PRES   REMARKS
TWIN CITIES    CLOUDY    44  35  70 CALM      30.10R
ST PAUL        CLOUDY    44  36  73 CALM      30.11R
CRYSTAL        CLOUDY    47  37  68 N7        30.09R
BLAINE         PTSUNNY   46  41  81 N7        30.10R
LAKEVILLE      CLOUDY    41  37  87 CALM      30.08S
EDEN PRAIRIE   CLOUDY    45  36  70 N3        30.08S
SOUTH ST PAUL  CLOUDY    44  36  73 CALM      30.10R
LAKE ELMO      CLOUDY    45  37  76 CALM      30.10R
$$
MNZ001>005-007-008-013>017-022>024-027-028-301800-
   Northwest Minnesota

CITY           SKY/WX    TMP DP  RH WIND       PRES   REMARKS
BEMIDJI        CLOUDY    37  31  81 NW12G17   30.17R
HALLOCK        PTSUNNY   36  28  75 N20G29    30.30R
ROSEAU         PTSUNNY   37  30  75 NW15      30.23R
WARROAD        PTSUNNY   37  34  87 NW21      30.22R HAZE
THIEF RVR FALL CLOUDY   N/A N/A N/A N18G25    30.24R
CROOKSTON      CLOUDY    37  34  87 N16G25    30.28R
FOSSTON        CLOUDY    36  30  80 N16       30.22R
DETROIT LAKES  CLOUDY    37  34  87 N9G22     30.20R
MOORHEAD       PTSUNNY   39  37  93 N23       30.25R
PARK RAPIDS    CLOUDY    38  33  82 N12       30.16R
MAHNOMEN       CLOUDY    37  32  84 N20G25    30.21R
$$
MNZ006-009>011-018-025>026-301800-
   North Central Minnesota

CITY           SKY/WX    TMP DP  RH WIND       PRES   REMARKS
BAUDETTE       CLOUDY    38  30  73 NW18G24   30.17R
FLAG ISLAND    CLOUDY    36  30  80 NW26      30.19R
INTL FALLS     CLOUDY    39  34  82 NW14      30.12R
WASKISH        CLOUDY    37  34  87 NW7       30.17R
BIG FORK       CLOUDY    37  34  87 NW6       30.13R
LONGVILLE      PTSUNNY   37  32  81 NW3       30.14R
GRAND RAPIDS   CLOUDY    37  30  75 N14G20    30.12R
CRANE LAKE     LGT RAIN  36  36 100 NW6       30.11R
ORR            CLOUDY    36  34  93 NW7       30.08R
COOK           CLOUDY    36  34  93 NW8       30.10R
WALKER         CLOUDY    37  31  79 NW3       30.15R
$$
MNZ012-019>021-037-301800-
   Northeast Minnesota

CITY           SKY/WX    TMP DP  RH WIND       PRES   REMARKS
DULUTH         CLOUDY    39  31  72 NW9       30.08R
ELY            CLOUDY    37  34  87 NW9       30.07R
HIBBING        CLOUDY    39  32  76 NW13      30.10R
EVELETH        CLOUDY    36  32  87 NW9       30.10S
DULUTH HARBOR  CLOUDY    43  34  70 NW14      30.11S
TWO HARBORS    CLOUDY    43 N/A N/A NW6       30.06S
SILVER BAY     PTSUNNY   43  32  65 NW7       30.05R
GRAND MARAIS     N/A     45  34  65 VRB3      30.04S
G MARAIS ARPRT CLOUDY    39  30  70 W5        30.01S
$$
MNZ029>031-032-039>041-046>048-054>057-064-301800-
   West Central Minnesota

CITY           SKY/WX    TMP DP  RH WIND       PRES   REMARKS
FERGUS FALLS   CLOUDY    43  36  75 N10       30.19R
WHEATON        CLOUDY    39  37  93 N13G18    30.20R FOG
MORRIS         MOSUNNY   43  41  93 N10       30.14R FOG
ALEXANDRIA     CLOUDY    41  37  86 N13       30.14R
ELBOW LAKE     DRIZZLE   40  38  93 N8        30.16R
WADENA         PTSUNNY   39  36  87 N9        30.15R
GLENWOOD       PTSUNNY   43  37  81 N12       30.13R
APPLETON       MOSUNNY   46  41  81 N16       30.13R
BENSON         CLOUDY    45  39  81 N10       30.13R
ORTONVILLE     CLOUDY    43  37  81 N15G21    30.16R
MADISON        PTSUNNY   46  43  87 N13       30.14R
WILLMAR        FAIR      45  37  76 N8        30.13R
$$
MNZ033>034-036-042>043-049>051-058-059-301800-
   Central Minnesota

CITY           SKY/WX    TMP DP  RH WIND       PRES   REMARKS
ST CLOUD       CLOUDY    46  36  68 N7        30.12R
SAUK CENTRE    CLOUDY    40  36  84 N6        30.13R
PAYNESVILLE    CLOUDY    40  36  85 NW6       30.13R
AITKIN         CLOUDY    41  34  75 NW6       30.12R
PINE RIVER     CLOUDY    39  36  87 N12       30.17R
BRAINERD       LGT RAIN  38  36  92 N7        30.14R
STAPLES        CLOUDY    37  36  93 N8        30.14R
LONG PRAIRIE   CLOUDY    37  36  93 N8        30.13R
LITTLE FALLS   CLOUDY    41  34  75 NW5       30.12R
LITCHFIELD     CLOUDY    45  39  81 N3        30.12R
BUFFALO        CLOUDY    43  36  76 N6        30.12R
MAPLE LAKE     CLOUDY    44  38  81 N6        30.13R
$$
MNZ037-044-045-052-053-301800-
   East Central Minnesota

CITY           SKY/WX    TMP DP  RH WIND       PRES   REMARKS
PRINCETON      CLOUDY    45  36  70 N5        30.12R
MORA           MOSUNNY   39  32  75 N7        30.13R
CAMBRIDGE      CLOUDY    45  34  65 NW6       30.10R
RUSH CITY      CLOUDY    42  35  74 N3        30.11S
MOOSE LAKE     CLOUDY    37  32  81 N5        30.09S
HINCKLEY       CLOUDY    39  36  87 N5        30.11S
CLOQUET        PTSUNNY   41  30  65 N10G16    30.09R
MCGREGOR       CLOUDY    37  34  87 NW8       30.12R
$$
MNZ071>073-080-081-089-090-097-098-301800-
   Southwest Minnesota

CITY           SKY/WX    TMP DP  RH WIND       PRES   REMARKS
MONTEVIDEO     CLOUDY    46  43  87 N8        30.13R
GRANITE FALLS  CLOUDY    45  40  81 NW8       30.14R
CANBY          CLOUDY    45  40  85 N13       30.14R
MARSHALL       CLOUDY    45  36  70 N13       30.11R
REDWOOD FALLS  CLOUDY    47  38  71 N9        30.10R
OLIVIA         SUNNY     45  37  76 N8        30.11R
PIPESTONE      SUNNY     54  34  47 N10G17    30.08R
WINDOM         PTSUNNY   54  36  50 N13G18    30.06S
WORTHINGTON    SUNNY     52  34  50 N15G22    30.07R
JACKSON        SUNNY     52  32  46 N10G18    30.06R
TRACY          CLOUDY    48  40  74 N12       30.11R
SLAYTON        PTSUNNY   51  33  50 N12       30.09R
$$
MNZ065>067-074>077-082>085-091>093-301800-
   South Central Minnesota

CITY           SKY/WX    TMP DP  RH WIND       PRES   REMARKS
MANKATO        CLOUDY    46  34  61 CALM      30.08R
NEW ULM          N/A     46  39  76 CALM      30.08R
ST JAMES       CLOUDY    48  37  66 N3        30.09R
FAIRMONT       MOSUNNY   54  34  47 N6        30.06R
GLENCOE        LGT RAIN  45  40  81 N8        30.09R
FARIBAULT      CLOUDY    43  39  87 N3        30.09R
OWATONNA       MOSUNNY   46  36  66 CALM      30.08R
WASECA         CLOUDY    45  32  61 CALM      30.09R
ALBERT LEA     CLOUDY    46  37  71 CALM      30.06S
$$
MNZ078>079-086>088-094>096-301800-
   Southeast Minnesota

CITY           SKY/WX    TMP DP  RH WIND       PRES   REMARKS
ROCHESTER      CLOUDY    44  36  73 CALM      30.08R
RED WING       CLOUDY    45  36  70 CALM      30.09R
STANTON        CLOUDY    44  37  78 CALM      30.08R
DODGE CENTER   CLOUDY    45  37  76 CALM      30.07R
WINONA         CLOUDY    43  36  75 CALM      30.09S
AUSTIN         MOSUNNY   45  37  76 CALM      30.06S
PRESTON        CLOUDY    42  35  76 CALM      30.08S
$$
ABBREVIATIONS USED IN REMARKS
   TC - TEMPERATURES IN CELSIUS
  WCI - WIND CHILL INDEX
   HX - HEAT INDEX
  VSB - VISIBILITY
$$



USA.gov is the U.S. government's official web portal to all federal, state and local government web resources and services.